Weather History for Alicante, Spain

Change the Weather History Date:

Saturday, November 23, 2013

  Actual Average Record
Temperature  
Mean Temperature 52 °F -  
Max Temperature 61 °F 61 °F 71 °F (2006)
Min Temperature 44 °F 45 °F 37 °F (1999)
Degree Days  
Heating Degree Days 12    
Growing Degree Days 2 (Base 50)    
Moisture  
Dew Point 27 °F    
Average Humidity 32    
Maximum Humidity 50    
Minimum Humidity 15    
Precipitation  
Precipitation 0.00 in - - ()
Sea Level Pressure  
Sea Level Pressure 29.84 in    
Wind  
Wind Speed 14 mph ()    
Max Wind Speed 25 mph    
Max Gust Speed 37 mph    
Visibility 12.0 miles    
Events      
Averages and records for this station are not official NWS values.
T = Trace of Precipitation, MM = Missing Value Source: Averaged Metar Reports

Daily Weather History Graph

Daily Weather History Graph

Search for Another Location

Airport:

Trip Planner

Search our weather history database for the weather conditions in past years. The results will help you decide how hot, cold, wet, or windy it might be!

Date:

Astronomy

Nov. 23, 2013 Rise Set
Actual Time 7:52 AM CET 5:44 PM CET
Civil Twilight 7:23 AM CET 6:13 PM CET
Nautical Twilight 6:51 AM CET 6:45 PM CET
Astronomical Twilight 6:19 AM CET 7:17 PM CET
Moon 10:57 PM CET (11/23) 12:02 PM CET (11/23)
Length of Visible Light 10h 50m
Length of Day
9h 52m
Waning Gibbous, 72% of the Moon is Illuminated
Nov 23
Waning Gibbous
Nov 25
Last Quarter
Dec 3
New
Dec 9
First Quarter
Dec 17
Full

Hourly Weather History & Observations

Time (CET) Temp. Windchill Dew Point Humidity Pressure Visibility Wind Dir Wind Speed Gust Speed Precip Events Conditions
12:00 AM 51 °F - 26 °F 26% 29.83 in - NW 9.2 mph - -  
12:00 AM 53.6 °F - 28.4 °F 38% 29.83 in - NW 9.2 mph - N/A   Clear
12:30 AM 53.6 °F - 28.4 °F 38% 29.80 in - WNW 16.1 mph - N/A   Clear
1:00 AM 51 °F - 28 °F 28% 29.82 in - WNW 18.4 mph - -  
1:00 AM 53.6 °F - 30.2 °F 41% 29.80 in - WNW 17.3 mph - N/A   Clear
1:30 AM 53.6 °F - 28.4 °F 38% 29.80 in - WNW 16.1 mph - N/A   Clear
2:00 AM 51 °F - 25 °F 24% 29.82 in - WNW 16.1 mph - -  
2:00 AM 53.6 °F - 26.6 °F 35% 29.80 in - WNW 15.0 mph - N/A   Clear
2:30 AM 51.8 °F - 26.6 °F 38% 29.80 in - WNW 10.4 mph - N/A   Clear
3:00 AM 49 °F - 23 °F 23% 29.82 in - WNW 13.8 mph - -  
3:00 AM 51.8 °F - 24.8 °F 35% 29.80 in - WNW 13.8 mph - N/A   Clear
3:30 AM 50.0 °F - 23.0 °F 35% 29.80 in - WNW 6.9 mph - N/A   Clear
4:00 AM 51.8 °F - 23.0 °F 33% 29.80 in - NW 12.7 mph - N/A   Clear
4:30 AM 50.0 °F - 23.0 °F 35% 29.80 in - WNW 17.3 mph - N/A   Clear
5:00 AM 48 °F - 22 °F 23% 29.81 in - WNW 19.6 mph - -  
5:00 AM 50.0 °F - 24.8 °F 37% 29.80 in - WNW 19.6 mph - N/A   Clear
5:30 AM 50.0 °F - 24.8 °F 37% 29.80 in - WNW 25.3 mph 36.8 mph N/A   Clear
6:00 AM 48 °F - 23 °F 25% 29.81 in - WNW 19.6 mph - -  
6:00 AM 50.0 °F - 24.8 °F 37% 29.80 in - WNW 18.4 mph - N/A   Clear
6:30 AM 50.0 °F - 26.6 °F 40% 29.80 in - WNW 18.4 mph - N/A   Clear
7:00 AM 47 °F - 24 °F 28% 29.83 in 12 mi WNW 20.7 mph - -  
7:00 AM 48.2 °F - 26.6 °F 43% 29.80 in - WNW 20.7 mph - N/A   Clear
7:30 AM 48.2 °F - 26.6 °F 43% 29.83 in - WNW 15.0 mph - N/A   Clear
8:00 AM 47 °F - 24 °F 28% 29.85 in - WNW 20.7 mph - -  
8:00 AM 48.2 °F - 26.6 °F 43% 29.83 in - WNW 19.6 mph - N/A   Clear
8:30 AM 50.0 °F - 26.6 °F 40% 29.83 in - WNW 19.6 mph 32.2 mph N/A   Clear
9:00 AM 48 °F - 25 °F 28% 29.85 in - WNW 24.2 mph - -  
9:00 AM 50.0 °F - 26.6 °F 40% 29.83 in - WNW 23.0 mph - N/A   Clear
9:30 AM 51.8 °F - 26.6 °F 38% 29.86 in - WNW 19.6 mph 31.1 mph N/A   Clear
10:00 AM 53.6 °F - 26.6 °F 35% 29.86 in - WNW 16.1 mph - N/A   Clear
10:30 AM 55.4 °F - 28.4 °F 36% 29.89 in - WNW 17.3 mph - N/A   Clear
11:00 AM 55 °F - 26 °F 20% 29.90 in - WNW 18.4 mph - -  
11:00 AM 57.2 °F - 26.6 °F 31% 29.89 in - WNW 17.3 mph - N/A   Clear
11:30 AM 57.2 °F - 26.6 °F 31% 29.89 in - WNW 21.9 mph 33.4 mph N/A   Clear
12:00 PM 58 °F - 25 °F 17% 29.88 in - WNW 21.9 mph - -  
12:00 PM 59.0 °F - 26.6 °F 29% 29.86 in - WNW 20.7 mph - N/A   Clear
12:30 PM 60.8 °F - 26.6 °F 27% 29.86 in - West 19.6 mph - N/A   Clear
1:00 PM 60 °F - 26 °F 16% 29.86 in 12 mi West 16.1 mph - -  
1:00 PM 60.8 °F - 26.6 °F 27% 29.86 in - West 17.3 mph - N/A   Clear
1:30 PM 62.6 °F - 26.6 °F 26% 29.83 in - West 12.7 mph 25.3 mph N/A   Clear
2:00 PM 61 °F - 25 °F 15% 29.84 in - West 19.6 mph - -  
2:00 PM 62.6 °F - 28.4 °F 27% 29.83 in - West 18.4 mph - N/A   Clear
2:30 PM 62.6 °F - 28.4 °F 27% 29.83 in - WNW 19.6 mph - N/A   Clear
3:00 PM 61 °F - 26 °F 15% 29.82 in - WNW 23.0 mph - -  
3:00 PM 62.6 °F - 28.4 °F 27% 29.80 in - WNW 21.9 mph - N/A   Clear
3:30 PM 62.6 °F - 28.4 °F 27% 29.80 in - WNW 23.0 mph - N/A   Clear
4:00 PM 62.6 °F - 28.4 °F 27% 29.83 in - WNW 17.3 mph - N/A   Clear
4:30 PM 62.6 °F - 28.4 °F 27% 29.83 in - WNW 11.5 mph - N/A   Clear
5:00 PM 61 °F - 27 °F 16% 29.83 in - West 9.2 mph - -  
5:00 PM 62.6 °F - 28.4 °F 27% 29.83 in - West 8.1 mph - N/A   Clear
5:30 PM 60.8 °F - 28.4 °F 29% 29.83 in - Variable 2.3 mph - N/A   Clear
6:00 PM 57 °F - 27 °F 20% 29.84 in - SSW 4.6 mph - -  
6:00 PM 59.0 °F - 30.2 °F 34% 29.83 in - SSW 3.5 mph - N/A   Clear
6:30 PM 53.6 °F - 28.4 °F 38% 29.83 in - West 4.6 mph - N/A   Clear
7:00 PM 49 °F - 25 °F 27% 29.86 in 12 mi West 4.6 mph - -  
7:00 PM 50.0 °F - 28.4 °F 43% 29.83 in - West 3.5 mph - N/A   Clear
7:30 PM 53.6 °F - 28.4 °F 38% 29.86 in - NW 6.9 mph - N/A   Clear
8:00 PM 49 °F - 25 °F 27% 29.88 in - West 5.8 mph - -  
8:00 PM 51.8 °F - 28.4 °F 41% 29.86 in - West 5.8 mph - N/A   Clear
8:30 PM 55.4 °F - 26.6 °F 33% 29.86 in - WNW 10.4 mph - N/A   Clear
9:00 PM 50 °F - 25 °F 25% 29.88 in - West 11.5 mph - -  
9:00 PM 51.8 °F - 26.6 °F 38% 29.86 in - West 11.5 mph - N/A   Clear
9:30 PM 50.0 °F - 26.6 °F 40% 29.86 in - West 8.1 mph - N/A   Clear
10:00 PM 48.2 °F - 28.4 °F 46% 29.86 in - West 8.1 mph - N/A   Clear
10:30 PM 46.4 °F 44.3 °F 28.4 °F 50% 29.89 in - West 4.6 mph - N/A   Clear
11:00 PM 44 °F - 26 °F 36% 29.88 in - West 10.4 mph - -  
11:00 PM 46.4 °F 41.9 °F 28.4 °F 50% 29.86 in - West 9.2 mph - N/A   Clear
11:30 PM 50.0 °F - 28.4 °F 43% 29.86 in - WNW 8.1 mph - N/A   Clear